"1998/01/01",  6.8,  7.5,  5.9
"1998/01/02",  7.5,  8.2,  6.7
"1998/01/03",  7.6,  8.9,  6.8
"1998/01/04",  7.1,  7.8,  6.4
"1998/01/05",  6.8,  7.7,  6.0
"1998/01/06",  6.0,  7.1,  5.1
"1998/01/07",  5.7,  6.6,  4.9
"1998/01/08",  5.3,  5.6,  4.8
"1998/01/09",  5.0,  6.2,  4.4
"1998/01/10",  4.8,  5.9,  3.8
"1998/01/11",  4.9,  5.6,  4.1
"1998/01/12",  5.2,  5.5,  4.7
"1998/01/13",  4.9,  6.2,  4.1
"1998/01/14",  4.8,  5.9,  3.8
"1998/01/15",  4.9,  5.3,  4.7
"1998/01/16",  5.1,  6.3,  4.4
"1998/01/17",  4.9,  5.9,  3.7
"1998/01/18",  6.2,  6.9,  5.6
"1998/01/19",  6.0,  6.7,  5.2
"1998/01/20",  5.0,  6.3,  4.0
"1998/01/21",  4.7,  6.1,  3.6
"1998/01/22",  4.6,  6.0,  3.5
"1998/01/23",  5.1,  5.7,  4.7
"1998/01/24",  5.3,  6.1,  4.3
"1998/01/25",  4.0,  4.9,  3.3
"1998/01/26",  3.8,  5.2,  2.8
"1998/01/27",  4.1,  5.4,  3.2
"1998/01/28",  4.5,  5.5,  3.9
"1998/01/29",  4.2,  5.3,  3.2
"1998/01/30",  3.9,  5.0,  2.9
"1998/01/31",  4.2,  5.8,  2.9
"1998/02/01",  4.5,  5.8,  3.3
"1998/02/02",  5.1,  6.4,  3.9
"1998/02/03",  4.9,  6.0,  3.7
"1998/02/04",  5.5,  6.2,  4.9
"1998/02/05",  5.0,  6.5,  3.6
"1998/02/06",  4.6,  6.3,  3.3
"1998/02/07",  4.8,  6.1,  3.5
"1998/02/08",  6.1,  7.3,  5.3
"1998/02/09",  5.1,  6.1,  4.2
"1998/02/10",  4.2,  4.7,  3.8
"1998/02/11",  4.3,  6.0,  3.0
"1998/02/12",  5.6,  6.9,  4.3
"1998/02/13",  6.7,  8.9,  4.7
"1998/02/14",  7.7,  9.6,  6.3
"1998/02/15",  6.4,  7.8,  5.5
"1998/02/16",  6.2,  8.0,  4.9
"1998/02/17",  6.1,  7.2,  5.1
"1998/02/18",  5.6,  7.7,  3.9
"1998/02/19",  5.8,  7.9,  4.1
"1998/02/20",  6.4,  7.2,  5.3
"1998/02/21",  6.5,  7.2,  5.3
"1998/02/22",  6.1,  8.3,  4.5
"1998/02/23",  6.5,  8.9,  4.7
"1998/02/24",  6.1,  6.5,  5.8
"1998/02/25",  6.1,  6.4,  5.7
"1998/02/26",  6.6,  7.3,  6.1
"1998/02/27",  8.0, 10.6,  6.3
"1998/02/28",  8.6, 10.7,  7.0
"1998/03/01",  7.0,  8.6,  5.9
"1998/03/02",  7.0,  9.6,  4.8
"1998/03/03",  7.8, 10.3,  5.8
"1998/03/04",  8.4, 10.9,  6.4
"1998/03/05",  7.5,  8.4,  6.4
"1998/03/06",  7.3,  9.7,  5.6
"1998/03/07",  7.1,  8.6,  6.0
"1998/03/08",  6.8,  9.2,  4.6
"1998/03/09",  7.9, 10.4,  5.9
"1998/03/10",  8.0, 10.0,  6.5
"1998/03/11",  7.7,  9.9,  5.8
"1998/03/12",  8.6,  9.4,  7.8
"1998/03/13",  9.3, 10.9,  8.0
"1998/03/14",  9.3, 11.2,  7.7
"1998/03/15",  8.7,  9.7,  7.0
"1998/03/16",  7.6, 10.1,  5.5
"1998/03/17",  8.0,  9.7,  6.4
"1998/03/18",  7.7, 10.4,  5.5
"1998/03/19",  8.4, 10.3,  6.4
"1998/03/20", 10.4, 11.5,  9.3
"1998/03/21", 10.1, 11.1,  9.3
"1998/03/22",  8.7,  9.6,  7.9
"1998/03/23",  8.5, 10.6,  6.7
"1998/03/24",  9.5, 11.3,  7.8
"1998/03/25", 10.3, 12.5,  8.8
"1998/03/26", 10.7, 13.1,  8.7
"1998/03/27", 10.5, 11.1,  9.8
"1998/03/28", 12.1, 14.4, 10.5
"1998/03/29", 12.2, 14.4, 10.2
"1998/03/30", 12.8, 15.1, 10.8
"1998/03/31", 12.6, 13.8, 11.7
"1998/04/01", 10.6, 11.7,  9.3
"1998/04/02",  8.7,  9.3,  8.1
"1998/04/03",  9.3, 11.8,  7.2
"1998/04/04", 10.6, 12.3,  9.0
"1998/04/05", 11.8, 14.0,  9.9
"1998/04/06", 12.1, 12.5, 11.7
"1998/04/07"," * "," * "," * "
"1998/04/08"," * "," * "," * "
"1998/04/09", 11.4, 12.6, 10.9
"1998/04/10", 12.6, 15.4, 10.3
"1998/04/11", 13.9, 16.4, 11.8
"1998/04/12", 13.7, 14.4, 12.9
"1998/04/13", 15.0, 15.9, 13.9
"1998/04/14", 16.6, 17.2, 15.8
"1998/04/15", 15.6, 16.9, 14.1
"1998/04/16", 14.6, 16.1, 13.4
"1998/04/17", 13.6, 14.6, 12.8
"1998/04/18", 14.2, 16.3, 12.6
"1998/04/19", 15.7, 17.9, 13.9
"1998/04/20", 16.6, 18.9, 14.8
"1998/04/21", 16.6, 17.8, 15.3
"1998/04/22", 17.5, 19.3, 16.1
"1998/04/23", 17.7, 18.7, 16.7
"1998/04/24", 18.0, 18.7, 17.4
"1998/04/25", 18.6, 19.1, 18.1
"1998/04/26", 16.7, 18.4, 15.4
"1998/04/27", 15.0, 15.4, 14.8
"1998/04/28", 15.7, 17.2, 14.6
"1998/04/29", 17.0, 18.9, 15.6
"1998/04/30", 17.8, 19.5, 16.7
"1998/05/01", 17.3, 18.2, 16.5
"1998/05/02", 17.8, 19.0, 16.8
"1998/05/03", 18.9, 19.4, 17.7
"1998/05/04", 17.1, 18.1, 16.1
"1998/05/05", 16.9, 18.3, 15.6
"1998/05/06", 17.6, 18.7, 16.7
"1998/05/07", 19.3, 21.2, 17.9
"1998/05/08", 19.3, 20.0, 18.6
"1998/05/09", 19.0, 20.1, 18.2
"1998/05/10", 18.7, 19.4, 18.1
"1998/05/11", 17.5, 18.5, 16.9
"1998/05/12", 16.8, 17.2, 16.3
"1998/05/13", 18.5, 19.7, 17.2
"1998/05/14", 18.1, 18.8, 17.6
"1998/05/15", 18.4, 20.0, 17.2
"1998/05/16", 18.2, 19.3, 17.0
"1998/05/17", 19.0, 19.7, 18.3
"1998/05/18", 19.7, 20.1, 19.3
"1998/05/19", 19.6, 20.3, 19.1
"1998/05/20", 20.0, 21.2, 19.1
"1998/05/21", 20.0, 21.4, 18.9
"1998/05/22", 20.1, 21.5, 18.9
"1998/05/23", 20.0, 20.9, 19.1
"1998/05/24", 19.9, 20.4, 19.4
"1998/05/25", 20.7, 21.5, 20.0
"1998/05/26", 19.3, 20.8, 18.4
"1998/05/27", 19.0, 20.3, 18.0
"1998/05/28", 19.7, 21.0, 18.7
"1998/05/29", 19.9, 20.4, 19.4
"1998/05/30", 20.4, 21.1, 19.8
"1998/05/31", 20.8, 21.8, 20.0
"1998/06/01", 20.6, 21.6, 19.8
"1998/06/02", 20.2, 20.6, 19.4
"1998/06/03", 19.0, 19.4, 18.8
"1998/06/04", 19.7, 20.9, 18.9
"1998/06/05", 19.9, 20.3, 19.5
"1998/06/06", 18.3, 19.5, 17.6
"1998/06/07", 17.2, 17.6, 16.9
"1998/06/08", 17.8, 19.3, 16.7
"1998/06/09", 18.4, 18.8, 17.9
"1998/06/10", 18.6, 18.8, 18.3
"1998/06/11", 18.9, 19.6, 18.4
"1998/06/12", 19.2, 19.9, 18.6
"1998/06/13", 19.1, 19.5, 18.7
"1998/06/14", 18.8, 19.1, 18.5
"1998/06/15", 19.5, 20.5, 18.8
"1998/06/16", 20.4, 21.7, 19.1
"1998/06/17", 20.9, 22.0, 19.9
"1998/06/18", 21.4, 22.9, 20.3
"1998/06/19", 20.9, 21.3, 20.5
"1998/06/20", 22.9, 24.8, 21.2
"1998/06/21", 22.1, 22.9, 21.3
"1998/06/22", 19.4, 21.3, 18.6
"1998/06/23", 18.6, 18.9, 18.3
"1998/06/24", 19.5, 20.9, 18.2
"1998/06/25", 20.3, 20.8, 19.8
"1998/06/26", 21.9, 23.3, 20.5
"1998/06/27", 23.2, 24.5, 22.0
"1998/06/28", 23.5, 24.6, 22.6
"1998/06/29", 23.4, 24.2, 22.6
"1998/06/30", 23.5, 24.8, 22.4
"1998/07/01", 23.8, 24.9, 22.6
"1998/07/02", 24.2, 25.2, 23.3
"1998/07/03", 25.1, 26.6, 23.6
"1998/07/04", 25.9, 27.5, 24.3
"1998/07/05", 25.6, 26.8, 24.7
"1998/07/06", 24.9, 25.7, 24.1
"1998/07/07", 24.9, 26.0, 23.9
"1998/07/08", 25.2, 26.3, 24.2
"1998/07/09", 25.7, 27.4, 24.3
"1998/07/10", 25.2, 26.0, 24.3
"1998/07/11", 25.4, 26.6, 24.5
"1998/07/12", 23.5, 25.0, 22.3
"1998/07/13", 22.0, 22.5, 21.5
"1998/07/14", 22.2, 23.5, 21.1
"1998/07/15", 22.0, 22.5, 21.6
"1998/07/16", 21.2, 21.7, 20.7
"1998/07/17", 20.7, 20.9, 20.5
"1998/07/18", 22.2, 24.4, 20.3
"1998/07/19", 22.6, 23.7, 21.5
"1998/07/20", 22.9, 23.9, 22.1
"1998/07/21", 22.4, 22.9, 21.8
"1998/07/22", 21.5, 21.9, 21.3
"1998/07/23", 23.1, 24.4, 21.3
"1998/07/24", 23.8, 24.8, 22.9
"1998/07/25", 24.0, 24.9, 23.3
"1998/07/26", 24.6, 25.8, 23.7
"1998/07/27", 25.5, 27.0, 24.1
"1998/07/28", 26.1, 27.8, 24.6
"1998/07/29", 26.4, 28.6, 25.0
"1998/07/30", 24.9, 26.2, 24.2
"1998/07/31", 24.9, 26.7, 23.5
"1998/08/01", 25.5, 27.3, 24.2
"1998/08/02", 26.4, 28.0, 25.3
"1998/08/03", 27.2, 29.1, 25.8
"1998/08/04", 26.6, 27.1, 26.1
"1998/08/05", 26.9, 28.9, 25.2
"1998/08/06", 26.1, 26.8, 25.3
"1998/08/07", 25.8, 27.3, 24.9
"1998/08/08", 24.7, 25.5, 23.7
"1998/08/09", 23.6, 24.5, 22.9
"1998/08/10", 24.4, 26.0, 23.1
"1998/08/11", 25.4, 27.0, 24.0
"1998/08/12", 26.0, 26.9, 25.1
"1998/08/13", 26.1, 27.9, 25.0
"1998/08/14", 26.3, 27.9, 25.3
"1998/08/15", 26.0, 26.7, 25.4
"1998/08/16", 26.2, 27.3, 25.3
"1998/08/17", 26.5, 27.6, 25.6
"1998/08/18", 25.7, 26.3, 25.2
"1998/08/19", 25.3, 25.8, 24.9
"1998/08/20", 25.9, 27.2, 24.9
"1998/08/21", 26.2, 27.3, 25.5
"1998/08/22", 25.0, 25.9, 24.3
"1998/08/23", 25.2, 27.0, 24.0
"1998/08/24", 25.9, 27.3, 24.9
"1998/08/25", 26.1, 27.3, 25.1
"1998/08/26", 26.4, 27.2, 25.6
"1998/08/27", 26.4, 27.1, 25.8
"1998/08/28", 25.9, 26.2, 25.7
"1998/08/29", 25.8, 26.2, 25.4
"1998/08/30", 25.5, 25.9, 24.4
"1998/08/31", 24.1, 24.4, 23.8
"1998/09/01", 23.6, 23.9, 23.4
"1998/09/02", 23.7, 24.7, 23.0
"1998/09/03", 24.3, 25.5, 23.5
"1998/09/04", 24.3, 25.0, 23.7
"1998/09/05", 24.4, 25.6, 23.5
"1998/09/06", 24.3, 24.9, 23.7
"1998/09/07", 23.6, 24.0, 23.2
"1998/09/08", 23.1, 23.4, 22.7
"1998/09/09", 23.5, 24.7, 22.7
"1998/09/10", 23.9, 25.0, 23.0
"1998/09/11", 23.6, 24.0, 23.2
"1998/09/12", 23.7, 24.3, 23.2
"1998/09/13", 24.1, 25.3, 23.3
"1998/09/14", 24.3, 25.4, 23.6
"1998/09/15", 24.2, 24.7, 23.6
"1998/09/16"," * "," * "," * "
"1998/09/17", 24.1, 24.6, 23.6
"1998/09/18", 23.8, 24.0, 23.6
"1998/09/19", 24.4, 25.5, 23.7
"1998/09/20", 24.9, 25.8, 24.1
"1998/09/21", 25.0, 25.3, 24.5
"1998/09/22", 25.2, 25.6, 24.9
"1998/09/23", 24.9, 25.2, 24.7
"1998/09/24", 24.3, 24.7, 24.0
"1998/09/25", 24.4, 25.0, 23.9
"1998/09/26", 23.9, 24.5, 23.1
"1998/09/27", 22.4, 23.2, 21.8
"1998/09/28", 21.8, 22.2, 21.4
"1998/09/29", 21.8, 22.1, 21.6
"1998/09/30", 21.9, 22.2, 21.7
"1998/10/01", 22.2, 22.4, 22.1
"1998/10/02", 22.8, 23.8, 22.1
"1998/10/03", 22.3, 22.9, 21.7
"1998/10/04", 22.2, 23.2, 21.5
"1998/10/05", 21.6, 22.5, 21.2
"1998/10/06", 21.1, 21.4, 20.8
"1998/10/07", 21.5, 21.9, 21.2
"1998/10/08", 22.2, 23.7, 21.6
"1998/10/09", 21.8, 23.6, 20.4
"1998/10/10", 21.5, 22.5, 20.5
"1998/10/11", 20.7, 21.3, 20.0
"1998/10/12", 20.2, 21.4, 19.2
"1998/10/13", 20.4, 21.1, 19.6
"1998/10/14", 20.6, 21.4, 20.0
"1998/10/15", 21.5, 22.5, 20.7
"1998/10/16", 22.2, 22.8, 21.7
"1998/10/17", 20.4, 21.7, 19.8
"1998/10/18", 21.3, 22.5, 19.8
"1998/10/19", 21.8, 22.9, 21.0
"1998/10/20"," * "," * "," * "
"1998/10/21", 18.6, 19.5, 17.5
"1998/10/22", 17.6, 18.1, 17.2
"1998/10/23", 17.2, 17.7, 16.8
"1998/10/24", 16.9, 17.1, 16.6
"1998/10/25", 17.3, 19.1, 15.7
"1998/10/26", 17.6, 18.6, 16.6
"1998/10/27", 16.7, 17.2, 16.1
"1998/10/28", 17.5, 19.0, 16.2
"1998/10/29", 17.7, 18.6, 17.1
"1998/10/30", 18.2, 19.6, 17.0
"1998/10/31", 18.9, 20.3, 17.8
"1998/11/01", 18.5, 19.4, 17.9
"1998/11/02", 17.3, 18.0, 16.9
"1998/11/03", 17.6, 19.0, 16.6
"1998/11/04", 17.8, 19.0, 16.8
"1998/11/05", 17.4, 18.3, 16.4
"1998/11/06", 15.7, 16.4, 15.1
"1998/11/07", 15.0, 15.3, 14.8
"1998/11/08", 15.4, 17.0, 14.0
"1998/11/09", 15.8, 17.0, 14.8
"1998/11/10", 15.4, 16.0, 14.8
"1998/11/11", 14.8, 15.6, 14.2
"1998/11/12", 14.0, 14.8, 13.2
"1998/11/13", 13.6, 15.0, 12.5
"1998/11/14", 13.9, 15.4, 12.5
"1998/11/15", 13.9, 15.5, 12.6
"1998/11/16", 13.9, 15.3, 12.6
"1998/11/17", 15.1, 16.0, 14.3
"1998/11/18", 13.9, 15.0, 12.9
"1998/11/19", 12.5, 13.3, 11.7
"1998/11/20", 12.1, 13.4, 11.0
"1998/11/21", 11.8, 13.0, 10.6
"1998/11/22", 11.3, 11.9, 10.8
"1998/11/23", 11.5, 12.9, 10.6
"1998/11/24", 11.1, 12.4,  9.9
"1998/11/25", 11.0, 12.2, 10.0
"1998/11/26", 10.4, 11.8,  9.2
"1998/11/27", 10.8, 11.8,  9.7
"1998/11/28", 11.6, 13.1, 10.7
"1998/11/29", 11.0, 11.9, 10.1
"1998/11/30", 11.0, 11.9,  9.9
"1998/12/01", 11.8, 13.1, 10.7
"1998/12/02", 11.1, 11.6,  9.8
"1998/12/03",  9.1,  9.8,  8.4
"1998/12/04",  8.8,  9.5,  8.1
"1998/12/05",  9.1,  9.5,  8.8
"1998/12/06", 10.1, 11.0,  9.4
"1998/12/07",  9.8, 10.1,  9.7
"1998/12/08", 10.3, 10.8,  9.9
"1998/12/09", 10.1, 10.8,  9.6
"1998/12/10",  9.3,  9.8,  8.7
"1998/12/11",  8.9,  9.8,  8.3
"1998/12/12",  8.3,  9.1,  7.2
"1998/12/13",  8.5,  9.6,  7.6
"1998/12/14",  8.1,  9.4,  6.8
"1998/12/15",  8.9, 10.2,  8.1
"1998/12/16",  9.2, 10.0,  8.5
"1998/12/17",  8.6,  9.8,  7.6
"1998/12/18",  8.2,  9.2,  7.3
"1998/12/19",  8.1,  9.4,  7.1
"1998/12/20",  7.9,  8.9,  7.1
"1998/12/21",  7.4,  8.5,  6.5
"1998/12/22",  7.0,  8.3,  5.9
"1998/12/23",  7.5,  8.6,  6.3
"1998/12/24",  8.0,  8.9,  7.0
"1998/12/25",  6.7,  7.9,  5.5
"1998/12/26",  7.1,  8.2,  6.1
"1998/12/27",  6.8,  7.8,  5.9
"1998/12/28",  7.0,  8.2,  5.9
"1998/12/29",  6.9,  8.3,  5.7
"1998/12/30",  6.9,  8.2,  5.7
"1998/12/31",  6.5,  7.6,  5.9
